Weather History for Providence, RI

Change the Weather History Date:

Tuesday, December 11, 2012

  Actual Average Record
Temperature  
Mean Temperature 47 °F 36 °F  
Max Temperature 58 °F 44 °F 68 °F (1971)
Min Temperature 35 °F 28 °F 4 °F (1958)
Degree Days  
Heating Degree Days 18 29  
Month to date heating degree days 235 302  
Since 1 July heating degree days 1260 1377  
Cooling Degree Days 0 0  
Month to date cooling degree days 0 0  
Year to date cooling degree days 834 744  
Moisture  
Dew Point 35 °F    
Average Humidity 68    
Maximum Humidity 93    
Minimum Humidity 42    
Precipitation  
Precipitation 0.01 in 0.14 in 2.40 in (1992)
Month to date precipitation 1.64 1.66  
Year to date precipitation 37.28 44.62  
Snow  
Snow 0.00 in 0.30 in 4.90 in (1986)
Month to date snowfall 0.3 2.5  
Since 1 July snowfall 1.6 4.0  
Snow Depth 0.00 in    
Sea Level Pressure  
Sea Level Pressure 29.84 in    
Wind  
Wind Speed 10 mph (NW)    
Max Wind Speed 17 mph    
Max Gust Speed 23 mph    
Visibility 10 miles    
Events Rain    
T = Trace of Precipitation, MM = Missing Value Source: NWS Daily Summary

Daily Weather History Graph

Daily Weather History Graph

Search for Another Location

Airport:

Trip Planner

Search our weather history database for the weather conditions in past years. The results will help you decide how hot, cold, wet, or windy it might be!

Date:

Astronomy

Dec. 11, 2012 Rise Set
Actual Time 7:03 AM EST 4:15 PM EST
Civil Twilight 6:31 AM EST 4:46 PM EST
Nautical Twilight 5:56 AM EST 5:21 PM EST
Astronomical Twilight 5:22 AM EST 5:55 PM EST
Moon 4:53 AM EST (12/11) 2:52 PM EST (12/11)
Length of Visible Light 10h 15m
Length of Day
9h 12m
Waning Crescent, 4% of the Moon is Illuminated
Dec 11
Waning Crescent
Dec 13
New
Dec 20
First Quarter
Dec 28
Full
Jan 4
Last Quarter

Hourly Weather History & Observations

Time (EST) Temp. Windchill Dew Point Humidity Pressure Visibility Wind Dir Wind Speed Gust Speed Precip Events Conditions
12:51 AM 57.9 °F - 54.0 °F 87% 29.57 in 10.0 mi WSW 4.6 mph - N/A   Overcast
1:24 AM 57.2 °F - 53.6 °F 88% 29.57 in 10.0 mi WSW 4.6 mph - N/A   Overcast
1:51 AM 55.9 °F - 51.1 °F 84% 29.60 in 10.0 mi NW 11.5 mph - N/A   Mostly Cloudy
2:04 AM 55.4 °F - 46.4 °F 72% 29.60 in 10.0 mi NW 9.2 mph 17.3 mph N/A   Mostly Cloudy
2:51 AM 53.1 °F - 46.0 °F 77% 29.63 in 10.0 mi WNW 9.2 mph - N/A   Overcast
3:51 AM 51.1 °F - 45.0 °F 80% 29.66 in 10.0 mi WNW 5.8 mph - N/A   Overcast
4:51 AM 51.1 °F - 44.1 °F 77% 29.69 in 10.0 mi NNW 5.8 mph - N/A   Overcast
5:14 AM 50.0 °F - 44.6 °F 82% 29.70 in 10.0 mi NW 4.6 mph - N/A   Overcast
5:51 AM 50.0 °F - 43.0 °F 77% 29.69 in 10.0 mi NNW 3.5 mph - N/A   Overcast
6:51 AM 48.9 °F - 42.1 °F 77% 29.72 in 10.0 mi NW 8.1 mph - N/A   Overcast
7:51 AM 46.9 °F - 39.9 °F 77% 29.75 in 6.0 mi NW 11.5 mph - 0.00 in Rain Light Rain
8:51 AM 45.0 °F 40.1 °F 39.9 °F 82% 29.85 in 10.0 mi WNW 9.2 mph - 0.01 in Rain Light Rain
9:51 AM 46.0 °F 40.2 °F 39.0 °F 76% 29.84 in 10.0 mi NW 12.7 mph 19.6 mph 0.00 in   Mostly Cloudy
10:51 AM 46.0 °F 40.6 °F 35.1 °F 66% 29.88 in 10.0 mi WNW 11.5 mph - N/A   Scattered Clouds
11:51 AM 48.9 °F - 34.0 °F 56% 29.86 in 10.0 mi North 9.2 mph - N/A   Scattered Clouds
12:51 PM 48.9 °F - 28.0 °F 44% 29.88 in 10.0 mi WNW 15.0 mph - N/A   Scattered Clouds
1:51 PM 48.0 °F - 26.1 °F 42% 29.89 in 10.0 mi NNW 12.7 mph 21.9 mph N/A   Scattered Clouds
2:51 PM 46.9 °F - 25.0 °F 42% 29.92 in 10.0 mi NW 12.7 mph - N/A   Scattered Clouds
3:51 PM 46.4 °F 42.4 °F 24.8 °F 43% 29.96 in 10.0 mi WNW 8.1 mph - N/A   Mostly Cloudy
4:51 PM 43.0 °F 36.8 °F 24.1 °F 47% 30.01 in 10.0 mi WNW 11.5 mph 19.6 mph N/A   Scattered Clouds
5:51 PM 41.0 °F 35.8 °F 24.8 °F 53% 30.04 in 10.0 mi WNW 8.1 mph - N/A   Mostly Cloudy
6:51 PM 39.0 °F 31.8 °F 24.1 °F 55% 30.07 in 10.0 mi West 11.5 mph 18.4 mph N/A   Mostly Cloudy
7:51 PM 37.9 °F 30.9 °F 21.9 °F 53% 30.10 in 10.0 mi NW 10.4 mph 19.6 mph N/A   Mostly Cloudy
8:51 PM 37.0 °F 29.8 °F 21.9 °F 54% 30.12 in 10.0 mi WNW 10.4 mph - N/A   Overcast
9:51 PM 36.0 °F 29.6 °F 21.9 °F 57% 30.14 in 10.0 mi WNW 8.1 mph - N/A   Mostly Cloudy
10:51 PM 35.6 °F 29.2 °F 19.4 °F 52% 30.15 in 10.0 mi NW 8.1 mph - N/A   Overcast
11:51 PM 36.0 °F 28.5 °F 19.9 °F 52% 30.17 in 10.0 mi WNW 10.4 mph - N/A   Overcast